Location: Robert Brownlee Observatory
(34.2308°N, 117.2089°W)
Time: 12:22:12
(UTC-07:00)

Cosmos 1943 - Visible Passes

Search period start: 28 June 2017 00:00
Search period end: 08 July 2017 00:00
Orbit: 834 x 849 km, 71.0° (Epoch: 27 June)

Date Brightness Start Highest point End Pass type
(mag) Time Alt. Az. Time Alt. Az. Time Alt. Az.
28 Jun 4.0 21:41:59 10° N 21:47:13 37° ENE 21:49:30 27° ESE visible
28 Jun 4.7 23:26:28 10° NW 23:31:00 25° WSW 23:31:19 25° WSW visible
29 Jun 4.1 21:27:03 10° N 21:32:12 35° ENE 21:35:01 22° ESE visible
29 Jun 4.6 23:11:24 10° NW 23:16:01 27° WSW 23:16:51 26° WSW visible
30 Jun 4.1 21:12:06 10° N 21:17:12 33° ENE 21:20:35 18° ESE visible
30 Jun 4.6 22:56:19 10° NW 23:01:04 28° WSW 23:02:24 25° SW visible
01 Jul 4.2 20:57:10 10° N 21:02:11 32° ENE 21:06:11 15° ESE visible
01 Jul 4.6 22:41:15 10° NW 22:46:05 30° WSW 22:48:01 24° SW visible
02 Jul 4.3 20:42:13 10° N 20:47:10 30° ENE 20:51:50 11° ESE visible
02 Jul 4.5 22:26:11 10° NW 22:31:07 32° WSW 22:33:40 22° SW visible
03 Jul 4.3 20:27:18 10° N 20:32:09 28° ENE 20:36:59 10° ESE visible
03 Jul 4.5 22:11:07 10° NW 22:16:09 34° WSW 22:19:22 19° SSW visible
04 Jul 4.4 21:56:04 10° NW 22:01:10 36° WSW 22:05:07 16° SSW visible
05 Jul 4.4 21:41:01 10° NW 21:46:11 38° WSW 21:50:56 12° SSW visible
06 Jul 4.3 21:25:58 10° NW 21:31:12 40° WSW 21:36:27 10° S visible
07 Jul 4.3 21:10:55 10° NW 21:16:14 42° WSW 21:21:32 10° S visible
